{"data":{"norad_id":63209,"intl_designator":"2025-051B","name":"TIANYAN 23","alt_names":[],"object_type":"PAYLOAD","status":"ACTIVE","operator":null,"country":"PRC","launch_date":"2025-03-15","launch_site_code":"JSC","launch_vehicle":null,"mission":null,"orbit_class":"UNKNOWN","rcs_meters":null,"size_class":null,"mass_kg":null,"dimensions":null,"purposes":[],"wikipedia_slug":null,"has_3d_model":false,"image_url":null,"decayed_at":null,"tle_current":{"epoch":"2026-05-25T05:31:03.786816Z","epoch_age_seconds":49020,"freshness":"FRESH","line1":"1 63209U 25051B   26145.22990494  .00035773  00000+0  71092-3 0  9996","line2":"2 63209  97.4510 231.7628 0006822 164.6048 195.5410 15.46864272 66815","mean_motion":15.46864272,"eccentricity":0.0006822,"inclination_deg":97.451,"raan_deg":231.7628,"arg_perigee_deg":164.6048,"mean_anomaly_deg":195.541,"bstar":0.00071092,"rev_number":6681,"period_min":93.09155470623,"perigee_km":421.26406210376,"apogee_km":430.54749807292,"semimajor_km":6804.0427800883,"source":"CELESTRAK","updated_at":"2026-05-25T13:38:03.573564Z"}}}